Weather History for KORE - August, 2013

Change the Weather History Date:

Sunday, August 11, 2013

  Actual Average Record
Temperature  
Mean Temperature 63 °F -  
Max Temperature 78 °F 79 °F - (-1)
Min Temperature 48 °F 57 °F - (-1)
Degree Days  
Heating Degree Days 2    
Growing Degree Days 13 (Base 50)    
Moisture  
Dew Point 51 °F    
Average Humidity 70    
Maximum Humidity 97    
Minimum Humidity 35    
Precipitation  
Precipitation 0.00 in - - ()
Sea Level Pressure  
Sea Level Pressure 30.07 in    
Wind  
Wind Speed 2 mph (West)    
Max Wind Speed 9 mph    
Max Gust Speed -    
Visibility 10 miles    
Events      
Averages and records for this station are not official NWS values.
T = Trace of Precipitation, MM = Missing Value Source: NWS Daily Summary

Daily Weather History Graph

Daily Weather History Graph

Search for Another Location

Airport or City:

Trip Planner

Search our weather history database for the weather conditions in past years. The results will help you decide how hot, cold, wet, or windy it might be!

Date:

Astronomy

Aug. 11, 2013 Rise Set
Actual Time 5:51 AM EDT 7:56 PM EDT
Civil Twilight 5:21 AM EDT 8:26 PM EDT
Nautical Twilight 4:43 AM EDT 9:04 PM EDT
Astronomical Twilight 4:01 AM EDT 9:45 PM EDT
Moon 10:44 AM EDT (8/11) 10:01 PM EDT (8/11)
Length of Visible Light 15h 05m
Length of Day
14h 04m
Waxing Crescent, 22% of the Moon is Illuminated
Aug 11
Waxing Crescent
Aug 14
First Quarter
Aug 20
Full
Aug 28
Last Quarter
Sep 5
New

Hourly Weather History & Observations

Time (EDT) Temp. Dew Point Humidity Pressure Visibility Wind Dir Wind Speed Gust Speed Precip Events Conditions
12:52 AM 55.9 °F 53.1 °F 90% 30.05 in 10.0 mi Calm Calm - N/A   Clear
1:52 AM 53.1 °F 51.1 °F 93% 30.06 in 10.0 mi Calm Calm - N/A   Clear
2:52 AM 52.0 °F 51.1 °F 97% 30.06 in 10.0 mi Calm Calm - N/A   Clear
3:52 AM 51.1 °F 48.9 °F 92% 30.07 in 10.0 mi Calm Calm - N/A   Clear
4:52 AM 50.0 °F 48.0 °F 93% 30.08 in 10.0 mi Calm Calm - N/A   Clear
5:52 AM 48.9 °F 48.0 °F 97% 30.09 in 10.0 mi Calm Calm - N/A   Clear
6:37 AM 50.0 °F 48.2 °F 94% 30.10 in 10.0 mi Calm Calm - N/A   Partly Cloudy
6:52 AM 51.1 °F 48.9 °F 92% 30.11 in 10.0 mi Calm Calm - N/A   Scattered Clouds
7:52 AM 55.9 °F 52.0 °F 87% 30.11 in 10.0 mi Calm Calm - N/A   Clear
8:52 AM 63.0 °F 53.1 °F 70% 30.11 in 10.0 mi Calm Calm - N/A   Clear
9:52 AM 70.0 °F 53.1 °F 55% 30.10 in 10.0 mi NW 5.8 mph - N/A   Clear
10:52 AM 72.0 °F 50.0 °F 46% 30.10 in 10.0 mi NW 9.2 mph - N/A   Clear
11:52 AM 73.0 °F 51.1 °F 46% 30.09 in 10.0 mi Variable 3.5 mph - N/A   Partly Cloudy
12:52 PM 75.9 °F 51.1 °F 42% 30.06 in 10.0 mi NNE 6.9 mph - N/A   Partly Cloudy
1:52 PM 75.9 °F 48.9 °F 38% 30.06 in 10.0 mi Variable 4.6 mph - N/A   Partly Cloudy
2:52 PM 78.1 °F 48.0 °F 35% 30.05 in 10.0 mi SW 6.9 mph - N/A   Scattered Clouds
3:52 PM 78.1 °F 48.0 °F 35% 30.04 in 10.0 mi WSW 6.9 mph - N/A   Clear
4:52 PM 77.0 °F 48.9 °F 37% 30.03 in 10.0 mi WSW 9.2 mph - N/A   Mostly Cloudy
5:52 PM 77.0 °F 50.0 °F 39% 30.03 in 10.0 mi WNW 8.1 mph - N/A   Partly Cloudy
6:52 PM 75.0 °F 51.1 °F 43% 30.02 in 10.0 mi West 3.5 mph - N/A   Clear
7:52 PM 66.0 °F 57.9 °F 75% 30.04 in 10.0 mi Calm Calm - N/A   Clear
8:52 PM 63.0 °F 57.9 °F 84% 30.04 in 10.0 mi Calm Calm - N/A   Clear
9:52 PM 60.1 °F 57.0 °F 90% 30.06 in 10.0 mi Calm Calm - N/A   Clear
10:52 PM 57.9 °F 55.9 °F 93% 30.05 in 10.0 mi Calm Calm - N/A   Clear
11:52 PM 57.0 °F 55.0 °F 93% 30.05 in 10.0 mi Calm Calm - N/A   Clear